Weather History for Indiana, PA

Change the Weather History Date:

Monday, February 11, 2013

  Actual Average Record
Temperature  
Mean Temperature 48 °F -  
Max Temperature 60 °F 37 °F 69 °F (1999)
Min Temperature 35 °F 17 °F -20 °F (1979)
Degree Days  
Heating Degree Days 18    
Moisture  
Dew Point 35 °F    
Average Humidity 73    
Maximum Humidity 100    
Minimum Humidity 36    
Precipitation  
Precipitation 0.08 in - - ()
Sea Level Pressure  
Sea Level Pressure 29.80 in    
Wind  
Wind Speed 13 mph (WSW)    
Max Wind Speed 33 mph    
Max Gust Speed 48 mph    
Visibility 9 miles    
Events      
Averages and records for this station are not official NWS values.
T = Trace of Precipitation, MM = Missing Value Source: NWS Daily Summary

Daily Weather History Graph

Daily Weather History Graph

Search for Another Location

Airport:

Trip Planner

Search our weather history database for the weather conditions in past years. The results will help you decide how hot, cold, wet, or windy it might be!

Date:

Astronomy

Feb. 11, 2013 Rise Set
Actual Time 7:14 AM EST 5:46 PM EST
Civil Twilight 6:46 AM EST 6:15 PM EST
Nautical Twilight 6:14 AM EST 6:47 PM EST
Astronomical Twilight 5:42 AM EST 7:19 PM EST
Moon 7:37 AM EST (2/11) 7:42 PM EST (2/11)
Length of Visible Light 11h 28m
Length of Day
10h 31m
Waxing Crescent, 3% of the Moon is Illuminated
Feb 11
Waxing Crescent
Feb 17
First Quarter
Feb 25
Full
Mar 4
Last Quarter
Mar 11
New

Hourly Weather History & Observations

Time (EST) Temp. Windchill Dew Point Humidity Pressure Visibility Wind Dir Wind Speed Gust Speed Precip Events Conditions
12:15 AM 39.2 °F 31.6 °F 23.0 °F 52% 29.99 in 10.0 mi SSE 12.7 mph 21.9 mph N/A   Unknown
12:35 AM 39.2 °F 31.2 °F 21.2 °F 49% 29.98 in 10.0 mi SSE 13.8 mph 19.6 mph N/A   Unknown
12:55 AM 39.2 °F 31.6 °F 23.0 °F 52% 29.97 in 10.0 mi SSE 12.7 mph 21.9 mph N/A   Unknown
1:15 AM 39.2 °F 32.5 °F 24.8 °F 56% 29.96 in 10.0 mi SSE 10.4 mph 19.6 mph N/A   Unknown
1:35 AM 37.4 °F 30.3 °F 28.4 °F 70% 29.95 in 7.0 mi SSE 10.4 mph 19.6 mph N/A   Unknown
1:55 AM 37.4 °F 28.5 °F 30.2 °F 75% 29.95 in 5.0 mi SSE 15.0 mph 20.7 mph N/A   Unknown
2:15 AM 35.6 °F 27.5 °F 35.6 °F 100% 29.93 in 5.0 mi SSE 11.5 mph 17.3 mph 0.02 in   Unknown
2:35 AM 35.6 °F 27.5 °F 35.6 °F 100% 29.93 in 3.0 mi SSE 11.5 mph 21.9 mph 0.04 in   Unknown
2:55 AM 35.6 °F 27.5 °F 35.6 °F 100% 29.91 in 3.0 mi SSE 11.5 mph 19.6 mph 0.04 in   Unknown
3:15 AM 35.6 °F 27.5 °F 35.6 °F 100% 29.90 in 5.0 mi SSE 11.5 mph 17.3 mph N/A   Unknown
3:55 AM 35.6 °F 28.0 °F 35.6 °F 100% 29.87 in 3.0 mi SSE 10.4 mph 17.3 mph 0.01 in   Unknown
4:15 AM 37.4 °F 30.3 °F 37.4 °F 100% 29.87 in 4.0 mi SSE 10.4 mph - N/A   Unknown
4:35 AM 37.4 °F 31.4 °F 37.4 °F 100% 29.86 in 2.5 mi South 8.1 mph - 0.01 in   Unknown
4:55 AM 37.4 °F 31.4 °F 37.4 °F 100% 29.86 in 2.5 mi South 8.1 mph - 0.02 in   Unknown
5:15 AM 37.4 °F 30.8 °F 37.4 °F 100% 29.86 in 2.5 mi South 9.2 mph - N/A   Unknown
5:35 AM 39.2 °F 34.2 °F 39.2 °F 100% 29.85 in 7.0 mi South 6.9 mph - 0.01 in   Unknown
5:55 AM 39.2 °F 35.0 °F 39.2 °F 100% 29.84 in 10.0 mi South 5.8 mph - 0.01 in   Unknown
6:15 AM 39.2 °F 37.0 °F 39.2 °F 100% 29.84 in 10.0 mi South 3.5 mph - N/A   Unknown
6:35 AM 39.2 °F - 39.2 °F 100% 29.84 in 10.0 mi Calm Calm - N/A   Unknown
6:55 AM 39.2 °F 37.0 °F 39.2 °F 100% 29.83 in 10.0 mi ESE 3.5 mph - N/A   Unknown
7:15 AM 39.2 °F - 39.2 °F 100% 29.83 in 10.0 mi Calm Calm - N/A   Unknown
7:35 AM 39.2 °F - 39.2 °F 100% 29.83 in 10.0 mi Calm Calm - N/A   Unknown
7:55 AM 39.2 °F 37.0 °F 39.2 °F 100% 29.82 in 10.0 mi SE 3.5 mph - N/A   Unknown
8:15 AM 42.8 °F - 42.8 °F 100% 29.81 in 10.0 mi Calm Calm - N/A   Unknown
8:35 AM 44.6 °F 43.1 °F 44.6 °F 100% 29.80 in 10.0 mi SSW 3.5 mph - N/A   Unknown
8:55 AM 46.4 °F 43.5 °F 46.4 °F 100% 29.80 in 10.0 mi SW 5.8 mph - N/A   Unknown
9:15 AM 48.2 °F - 46.4 °F 93% 29.79 in 10.0 mi SW 9.2 mph - N/A   Unknown
9:35 AM 48.2 °F - 48.2 °F 100% 29.78 in 10.0 mi SW 10.4 mph - N/A   Unknown
9:55 AM 50.0 °F - 48.2 °F 94% 29.78 in 10.0 mi SW 10.4 mph 17.3 mph N/A   Unknown
10:15 AM 51.8 °F - 50.0 °F 94% 29.76 in 10.0 mi SW 16.1 mph - N/A   Unknown
10:35 AM 53.6 °F - 48.2 °F 82% 29.75 in 10.0 mi WSW 17.3 mph 26.5 mph N/A   Unknown
10:55 AM 55.4 °F - 48.2 °F 77% 29.74 in 10.0 mi WSW 23.0 mph 28.8 mph N/A   Unknown
11:15 AM 55.4 °F - 46.4 °F 72% 29.73 in 10.0 mi WSW 16.1 mph 28.8 mph N/A   Unknown
11:35 AM 55.4 °F - 44.6 °F 67% 29.71 in 10.0 mi WSW 18.4 mph 39.1 mph N/A   Unknown
11:55 AM 57.2 °F - 44.6 °F 63% 29.70 in 10.0 mi WSW 21.9 mph 31.1 mph N/A   Unknown
12:15 PM 57.2 °F - 42.8 °F 59% 29.70 in 10.0 mi WSW 25.3 mph 39.1 mph N/A   Unknown
12:35 PM 57.2 °F - 42.8 °F 59% 29.69 in 10.0 mi West 17.3 mph 29.9 mph N/A   Unknown
12:55 PM 57.2 °F - 42.8 °F 59% 29.67 in 10.0 mi West 23.0 mph 34.5 mph N/A   Unknown
1:15 PM 59.0 °F - 41.0 °F 51% 29.66 in 10.0 mi West 20.7 mph 28.8 mph N/A   Unknown
1:35 PM 59.0 °F - 37.4 °F 45% 29.65 in 10.0 mi West 21.9 mph 32.2 mph N/A   Unknown
1:55 PM 59.0 °F - 33.8 °F 39% 29.63 in 10.0 mi West 33.4 mph 39.1 mph N/A   Unknown
2:15 PM 60.8 °F - 33.8 °F 36% 29.63 in 10.0 mi West 27.6 mph 40.3 mph N/A   Unknown
2:35 PM 59.0 °F - 33.8 °F 39% 29.63 in 10.0 mi West 21.9 mph 40.3 mph N/A   Unknown
2:55 PM 59.0 °F - 33.8 °F 39% 29.63 in 10.0 mi WSW 24.2 mph 36.8 mph N/A   Unknown
3:15 PM 59.0 °F - 32.0 °F 36% 29.63 in 10.0 mi West 27.6 mph 40.3 mph N/A   Unknown
3:35 PM 57.2 °F - 32.0 °F 38% 29.64 in 10.0 mi West 31.1 mph 48.3 mph N/A   Unknown
3:55 PM 57.2 °F - 30.2 °F 36% 29.64 in 10.0 mi West 21.9 mph 33.4 mph N/A   Unknown
4:15 PM 57.2 °F - 30.2 °F 36% 29.65 in 10.0 mi West 20.7 mph 35.7 mph N/A   Unknown
4:35 PM 57.2 °F - 30.2 °F 36% 29.65 in 10.0 mi West 26.5 mph 38.0 mph N/A   Unknown
4:55 PM 55.4 °F - 30.2 °F 38% 29.65 in 10.0 mi West 28.8 mph 38.0 mph N/A   Unknown
5:55 PM 46.4 °F 40.4 °F 35.6 °F 66% 29.73 in 10.0 mi NW 13.8 mph 29.9 mph N/A   Unknown
6:15 PM 44.6 °F 38.8 °F 35.6 °F 71% 29.74 in 10.0 mi WNW 11.5 mph 25.3 mph N/A   Unknown
6:35 PM 44.6 °F 38.1 °F 33.8 °F 66% 29.77 in 10.0 mi NW 13.8 mph 27.6 mph N/A   Unknown
6:55 PM 42.8 °F 34.5 °F 30.2 °F 61% 29.80 in 10.0 mi NW 18.4 mph 31.1 mph N/A   Unknown
7:15 PM 39.2 °F 30.2 °F 28.4 °F 65% 29.82 in 10.0 mi WNW 17.3 mph 32.2 mph N/A   Unknown
7:35 PM 37.4 °F 28.9 °F 28.4 °F 70% 29.83 in 10.0 mi NW 13.8 mph 26.5 mph N/A   Unknown
7:55 PM 39.2 °F 32.5 °F 26.6 °F 61% 29.84 in 10.0 mi WNW 10.4 mph 31.1 mph N/A   Unknown
8:15 PM 37.4 °F 30.8 °F 26.6 °F 65% 29.85 in 10.0 mi WNW 9.2 mph - N/A   Unknown
8:35 PM 37.4 °F 30.3 °F 26.6 °F 65% 29.85 in 10.0 mi WNW 10.4 mph 17.3 mph N/A   Unknown
8:55 PM 37.4 °F 31.4 °F 26.6 °F 65% 29.85 in 10.0 mi WNW 8.1 mph 18.4 mph N/A   Unknown
9:15 PM 37.4 °F 31.4 °F 28.4 °F 70% 29.85 in 10.0 mi West 8.1 mph - N/A   Unknown
9:35 PM 37.4 °F 32.1 °F 26.6 °F 65% 29.86 in 10.0 mi WNW 6.9 mph - N/A   Unknown
9:55 PM 37.4 °F 29.8 °F 28.4 °F 70% 29.86 in 10.0 mi WNW 11.5 mph 23.0 mph N/A   Unknown
10:15 PM 37.4 °F 30.8 °F 28.4 °F 70% 29.87 in 10.0 mi West 9.2 mph 16.1 mph N/A   Unknown
10:35 PM 37.4 °F 32.1 °F 28.4 °F 70% 29.87 in 10.0 mi WNW 6.9 mph - N/A   Unknown
10:55 PM 35.6 °F 29.9 °F 28.4 °F 75% 29.88 in 10.0 mi WNW 6.9 mph 16.1 mph N/A   Unknown
11:15 PM 35.6 °F 27.5 °F 28.4 °F 75% 29.88 in 10.0 mi WNW 11.5 mph 17.3 mph N/A   Unknown
11:35 PM 35.6 °F 26.2 °F 26.6 °F 70% 29.88 in 10.0 mi WNW 15.0 mph 23.0 mph N/A   Unknown
11:55 PM 35.6 °F 26.2 °F 26.6 °F 70% 29.89 in 10.0 mi WNW 15.0 mph 21.9 mph N/A   Unknown